• In India
  • List of Countries
  • For 7 days
  • Water Temperature
  • Satellite Maps
  • Weather Map
  • Weather Widgets
  • user-avatar
    Login

    Hourly Weather Tuzla

    Today, 21 August, Tuesday

    Time Temperature Precipitation Wind Pressure Humidity
    00:00 +19°C° 0 mm 1 mps 722 mmHg 75%
    01:00 +19°C° 0 mm 1 mps 722 mmHg 76%
    02:00 +19°C° 0 mm 1 mps 722 mmHg 76%
    03:00 +19°C° 0 mm 1 mps 722 mmHg 77%
    04:00 +18°C° 0 mm 1 mps 722 mmHg 77%
    05:00 +20°C° 0 mm 1 mps 722 mmHg 73%
    06:00 +21°C° 0 mm 1 mps 722 mmHg 70%
    07:00 +23°C° 0 mm 1 mps 723 mmHg 66%
    08:00 +25°C° 0.1 mm 1 mps 723 mmHg 59%
    09:00 +27°C° 0.1 mm 1 mps 723 mmHg 53%
    10:00 +29°C° 0.1 mm 2 mps 723 mmHg 46%
    11:00 +30°C° 0.2 mm 2 mps 723 mmHg 44%
    12:00 +31°C° 0.2 mm 2 mps 723 mmHg 42%
    13:00 +31°C° 0.2 mm 3 mps 723 mmHg 40%
    14:00 +31°C° 0.2 mm 2 mps 723 mmHg 40%
    15:00 +31°C° 0.2 mm 2 mps 722 mmHg 41%
    16:00 +31°C° 0.2 mm 2 mps 722 mmHg 42%
    17:00 +28°C° 0.1 mm 2 mps 722 mmHg 49%
    18:00 +26°C° 0.1 mm 1 mps 722 mmHg 55%
    19:00 +23°C° 0.1 mm 1 mps 722 mmHg 62%
    20:00 +23°C° 0 mm 1 mps 722 mmHg 64%
    21:00 +22°C° 0 mm 1 mps 722 mmHg 67%
    22:00 +21°C° 0 mm 1 mps 722 mmHg 69%
    23:00 +21°C° 0 mm 1 mps 722 mmHg 71%

    Tomorrow, 22 August, Wednesday

    Time Temperature Precipitation Wind Pressure Humidity
    00:00 +20°C° 0 mm 1 mps 722 mmHg 72%
    01:00 +20°C° 0 mm 1 mps 722 mmHg 74%
    02:00 +19°C° 0.1 mm 1 mps 722 mmHg 75%
    03:00 +19°C° 0.1 mm 1 mps 722 mmHg 76%
    04:00 +19°C° 0.1 mm 1 mps 722 mmHg 77%
    05:00 +20°C° 0 mm 1 mps 723 mmHg 74%
    06:00 +22°C° 0 mm 1 mps 723 mmHg 70%
    07:00 +23°C° 0 mm 1 mps 723 mmHg 66%
    08:00 +26°C° 0 mm 1 mps 723 mmHg 59%
    09:00 +28°C° 0 mm 1 mps 724 mmHg 51%
    10:00 +30°C° 0 mm 1 mps 724 mmHg 44%
    11:00 +31°C° 0.1 mm 2 mps 724 mmHg 42%
    12:00 +31°C° 0.1 mm 2 mps 724 mmHg 40%
    13:00 +33°C° 0.1 mm 3 mps 723 mmHg 38%
    14:00 +33°C° 0 mm 3 mps 723 mmHg 40%
    15:00 +31°C° 0 mm 2 mps 723 mmHg 41%
    16:00 +31°C° 0 mm 2 mps 723 mmHg 43%
    17:00 +29°C° 0 mm 2 mps 722 mmHg 50%
    18:00 +26°C° 0 mm 2 mps 722 mmHg 57%
    19:00 +24°C° 0 mm 1 mps 722 mmHg 63%
    20:00 +23°C° 0 mm 1 mps 722 mmHg 66%
    21:00 +22°C° 0 mm 1 mps 722 mmHg 69%
    22:00 +22°C° 0 mm 1 mps 723 mmHg 71%
    23:00 +21°C° 0 mm 1 mps 723 mmHg 72%

    Day after tomorrow, 23 August, Thursday

    Time Temperature Precipitation Wind Pressure Humidity
    00:00 +21°C° 0 mm 1 mps 722 mmHg 72%
    01:00 +20°C° 0 mm 1 mps 722 mmHg 73%
    02:00 +20°C° 0 mm 1 mps 722 mmHg 73%
    03:00 +20°C° 0 mm 1 mps 722 mmHg 74%
    04:00 +19°C° 0 mm 1 mps 722 mmHg 74%
    05:00 +21°C° 0 mm 1 mps 722 mmHg 70%
    06:00 +22°C° 0 mm 1 mps 722 mmHg 66%
    07:00 +22°C° 0 mm 0 mps 722 mmHg 62%
    08:00 +26°C° 0 mm 1 mps 722 mmHg 55%
    09:00 +28°C° 0 mm 1 mps 722 mmHg 47%
    10:00 +31°C° 0 mm 2 mps 723 mmHg 39%
    11:00 +31°C° 0 mm 2 mps 722 mmHg 37%
    12:00 +32°C° 0 mm 2 mps 722 mmHg 35%
    13:00 +33°C° 0 mm 3 mps 722 mmHg 33%
    14:00 +33°C° 0 mm 3 mps 721 mmHg 35%
    15:00 +33°C° 0 mm 3 mps 721 mmHg 38%
    16:00 +31°C° 0 mm 3 mps 721 mmHg 40%
    17:00 +29°C° 0 mm 2 mps 721 mmHg 47%
    18:00 +26°C° 0 mm 2 mps 721 mmHg 54%
    19:00 +24°C° 0 mm 1 mps 720 mmHg 61%
    20:00 +23°C° 0 mm 1 mps 720 mmHg 64%
    21:00 +22°C° 0 mm 1 mps 721 mmHg 67%
    22:00 +21°C° 0 mm 1 mps 721 mmHg 69%
    23:00 +21°C° 0 mm 1 mps 720 mmHg 71%

    24 August, Friday

    Time Temperature Precipitation Wind Pressure Humidity
    00:00 +20°C° 0 mm 1 mps 720 mmHg 72%
    01:00 +20°C° 0 mm 1 mps 720 mmHg 73%
    02:00 +20°C° 0 mm 1 mps 720 mmHg 73%
    03:00 +19°C° 0 mm 1 mps 719 mmHg 74%
    04:00 +19°C° 0 mm 1 mps 719 mmHg 75%
    05:00 +20°C° 0 mm 1 mps 719 mmHg 71%
    06:00 +22°C° 0 mm 1 mps 720 mmHg 67%
    07:00 +23°C° 0 mm 1 mps 720 mmHg 63%
    08:00 +26°C° 0 mm 1 mps 720 mmHg 56%
    09:00 +29°C° 0 mm 1 mps 720 mmHg 48%
    10:00 +30°C° 0 mm 0 mps 720 mmHg 41%
    11:00 +32°C° 0 mm 1 mps 720 mmHg 38%
    12:00 +33°C° 0 mm 1 mps 720 mmHg 36%
    13:00 +34°C° 0 mm 1 mps 719 mmHg 33%
    14:00 +32°C° 0.1 mm 1 mps 719 mmHg 37%
    15:00 +31°C° 0.1 mm 1 mps 718 mmHg 41%
    16:00 +29°C° 0.1 mm 1 mps 718 mmHg 45%
    17:00 +28°C° 0.1 mm 1 mps 718 mmHg 51%
    18:00 +26°C° 0.1 mm 1 mps 718 mmHg 57%
    19:00 +24°C° 0.1 mm 1 mps 718 mmHg 63%
    20:00 +23°C° 0.4 mm 1 mps 718 mmHg 68%
    21:00 +22°C° 0.4 mm 1 mps 718 mmHg 73%
    22:00 +21°C° 0.4 mm 1 mps 718 mmHg 78%
    23:00 +21°C° 0.2 mm 1 mps 718 mmHg 79%

    25 August, Saturday

    Time Temperature Precipitation Wind Pressure Humidity
    00:00 +20°C° 0.2 mm 1 mps 718 mmHg 80%
    01:00 +20°C° 0.2 mm 1 mps 718 mmHg 82%
    02:00 +19°C° 0.2 mm 1 mps 718 mmHg 84%
    03:00 +19°C° 0.2 mm 1 mps 718 mmHg 86%
    04:00 +18°C° 0.2 mm 1 mps 718 mmHg 88%
    05:00 +19°C° 0.1 mm 1 mps 718 mmHg 85%
    06:00 +20°C° 0.1 mm 1 mps 719 mmHg 82%
    07:00 +21°C° 0.1 mm 1 mps 719 mmHg 79%
    08:00 +23°C° 0 mm 1 mps 719 mmHg 73%
    09:00 +24°C° 0 mm 2 mps 719 mmHg 68%
    10:00 +26°C° 0 mm 2 mps 720 mmHg 63%
    11:00 +27°C° 0 mm 2 mps 719 mmHg 59%
    12:00 +28°C° 0 mm 2 mps 719 mmHg 55%
    13:00 +29°C° 0 mm 2 mps 719 mmHg 51%
    14:00 +29°C° 0.2 mm 1 mps 718 mmHg 52%
    15:00 +28°C° 0.2 mm 1 mps 718 mmHg 53%
    16:00 +28°C° 0.2 mm 1 mps 718 mmHg 54%
    17:00 +26°C° 0.2 mm 1 mps 717 mmHg 62%
    18:00 +24°C° 0.2 mm 1 mps 717 mmHg 70%
    19:00 +20°C° 0.2 mm 0 mps 717 mmHg 78%
    20:00 +21°C° 0 mm 1 mps 717 mmHg 80%
    21:00 +21°C° 0 mm 1 mps 717 mmHg 82%
    22:00 +20°C° 0 mm 1 mps 717 mmHg 84%
    23:00 +20°C° 0 mm 1 mps 717 mmHg 85%

    26 August, Sunday

    Time Temperature Precipitation Wind Pressure Humidity
    00:00 +19°C° 0 mm 1 mps 716 mmHg 86%
    01:00 +19°C° 0 mm 1 mps 716 mmHg 87%
    02:00 +17°C° 0 mm 2 mps 716 mmHg 86%
    03:00 +17°C° 0 mm 2 mps 715 mmHg 85%
    04:00 +17°C° 0 mm 2 mps 715 mmHg 85%
    05:00 +18°C° 0 mm 2 mps 715 mmHg 80%
    06:00 +20°C° 0 mm 2 mps 715 mmHg 74%
    07:00 +21°C° 0 mm 2 mps 715 mmHg 69%
    08:00 +24°C° 0 mm 3 mps 715 mmHg 61%
    09:00 +26°C° 0 mm 4 mps 715 mmHg 53%
    10:00 +28°C° 0 mm 4 mps 715 mmHg 44%
    11:00 +29°C° 0 mm 4 mps 715 mmHg 43%
    12:00 +29°C° 0 mm 4 mps 715 mmHg 43%
    13:00 +29°C° 0 mm 4 mps 714 mmHg 42%
    14:00 +29°C° 0.1 mm 4 mps 714 mmHg 45%
    15:00 +28°C° 0.1 mm 4 mps 714 mmHg 47%
    16:00 +28°C° 0.1 mm 3 mps 714 mmHg 50%
    17:00 +25°C° 0 mm 3 mps 714 mmHg 57%
    18:00 +23°C° 0 mm 2 mps 713 mmHg 64%
    19:00 +20°C° 0 mm 2 mps 713 mmHg 71%
    20:00 +20°C° 0 mm 2 mps 713 mmHg 72%
    21:00 +20°C° 0 mm 2 mps 713 mmHg 73%
    22:00 +19°C° 0 mm 2 mps 713 mmHg 74%
    23:00 +19°C° 0.5 mm 2 mps 713 mmHg 78%
    Show more